{"data":{"norad_id":52543,"intl_designator":"2022-051L","name":"STARLINK-3926","alt_names":[],"object_type":"PAYLOAD","status":"ACTIVE","operator":null,"country":"US","launch_date":"2022-05-13","launch_site_code":"AFWTR","launch_vehicle":null,"mission":null,"orbit_class":"UNKNOWN","rcs_meters":null,"size_class":null,"mass_kg":null,"dimensions":null,"purposes":["comms"],"wikipedia_slug":null,"has_3d_model":false,"image_url":null,"decayed_at":null,"tle_current":{"epoch":"2026-05-25T00:00:21.447072Z","epoch_age_seconds":79066,"freshness":"FRESH","line1":"1 52543U 22051L   26145.00024823 -.00000690  00000+0 -25253-4 0  9993","line2":"2 52543  53.2137 146.5472 0001036  74.5661 285.5445 15.08842974222962","mean_motion":15.08842974,"eccentricity":0.0001036,"inclination_deg":53.2137,"raan_deg":146.5472,"arg_perigee_deg":74.5661,"mean_anomaly_deg":285.5445,"bstar":-2.5253e-5,"rev_number":22296,"period_min":95.437366565886,"perigee_km":539.01760718426,"apogee_km":540.45099011734,"semimajor_km":6917.8712986508,"source":"CELESTRAK","updated_at":"2026-05-25T13:38:17.163068Z"}}}